QPF
0.00 0.00 0.00 0.00 0.00 0.00 0.00 0.00 0.00 0.00 0.00 0.00 0.00 0.00 0.00 0.00 0.00 0.00 0.00 0.00 0.00 0.00 0.00 0.00 0.00 0.00 0.00 0.00 0.00 0.00 0.00 0.00 0.00 0.00 0.00 0.00 0.00 0.00 0.00 0.00 0.00 0.00 0.00 0.00 0.00 0.00 0.00
0.00 0.00 0.00 0.00 0.00 0.00 0.00 0.00 0.00 0.00 0.00 0.00 0.00 0.00 0.00 0.00 0.00 0.00 0.00 0.00 0.00 0.00 0.00 0.00 0.00 0.00 0.00 0.00 0.00 0.00 0.00 0.00 0.00 0.00 0.00 0.00 0.00 0.00 0.00 0.00 0.00 0.00 0.00 0.00 0.00 0.00 0.00
0.00 0.00 0.00 0.00 0.00 0.00 0.00 0.00 0.00 0.00 0.00 0.00 0.00 0.00 0.00 0.00 0.00 0.00 0.00 0.00 0.00 0.00 0.00 0.00 0.00 0.00 0.00 0.00 0.00 0.00 0.00 0.00 0.00 0.00 0.00 0.00 0.00 0.00 0.00 0.00 0.00 0.00 0.00 0.00 0.00 0.00 0.00
0.00 0.00 0.00 0.00 0.00 0.00 0.00 0.00 0.00 0.00 0.00 0.00 0.00 0.00 0.00 0.00 0.00 0.00 0.00 0.00 0.00 0.00 0.00 0.00 0.00 0.00 0.00 0.00 0.00 0.00 0.00 0.00 0.00 0.00 0.00 0.00 0.00 0.00 0.00 0.00 0.00 0.00 0.00 0.00 0.00 0.00 0.00
0.00 0.00 0.00 0.00 0.00 0.00 0.00 0.00 0.00 0.00 0.00 0.00 0.00 0.00 0.00 0.00 0.00 0.00 0.00 0.00 0.00 0.00 0.00 0.00 0.00 0.00 0.00 0.00 0.00 0.00 0.00 0.00 0.00 0.00 0.00 0.00 0.00 0.00 0.00 0.00 0.00 0.00 0.00 0.00 0.00 0.00 0.00
0.00 0.00 0.00 0.00 0.00 0.00 0.00 0.00 0.00 0.00 0.00 0.00 0.00 0.00 0.00 0.00 0.00 0.00 0.00 0.00 0.00 0.00 0.00 0.00 0.00 0.00 0.00 0.00 0.00 0.00 0.00 0.00 0.00 0.00 0.00 0.00 0.00 0.00 0.00 0.00 0.00 0.00 0.00 0.00 0.00 0.00 0.00
0.00 0.00 0.00 0.00 0.00 0.00 0.00 0.00 0.00 0.00 0.00 0.00 0.00 0.00 0.00 0.00 0.00 0.00 0.00 0.00 0.00 0.00 0.00 0.00 0.00 0.00 0.00 0.00 0.00 0.00 0.00 0.00 0.00 0.00 0.00 0.00 0.00 0.00 0.00 0.00 0.00 0.00 0.00 0.00 0.00 0.00 0.00
0.00 0.00 0.00 0.00 0.00 0.00 0.00 0.00 0.00 0.00 0.00 0.00 0.00 0.00 0.00 0.00 0.00 0.00 0.00 0.00 0.00 0.00 0.00 0.00 0.00 0.00 0.00 0.00 0.00 0.00 0.00 0.00 0.00 0.00 0.00 0.00 0.00 0.00 0.00 0.00 0.00 0.00 0.00 0.00 0.00 0.00 0.00
0.00 0.00 0.00 0.00 0.00 0.00 0.00 0.00 0.00 0.00 0.00 0.00 0.00 0.00 0.00 0.00 0.00 0.00 0.00 0.00 0.00 0.00 0.00 0.00 0.00 0.00 0.00 0.00 0.00 0.00 0.00 0.00 0.00 0.00 0.00 0.00 0.00 0.00 0.00 0.00 0.00 0.00 0.00 0.00 0.00 0.00 0.00
0.00 0.00 0.00 0.00 0.00 0.00 0.00 0.00 0.00 0.00 0.00 0.00 0.00 0.00 0.00 0.00 0.00 0.00 0.00 0.00 0.00 0.00 0.00 0.00 0.00 0.00 0.00 0.00 0.00 0.00 0.00 0.00 0.00 0.00 0.00 0.00 0.00 0.00 0.00 0.00 0.00 0.00 0.00 0.00 0.00 0.00 0.00
0.00 0.00 0.00 0.00 0.00 0.00 0.00 0.00 0.00 0.00 0.00 0.00 0.00 0.00 0.00 0.00 0.00 0.00 0.00 0.00 0.00 0.00 0.00 0.00 0.00 0.00 0.00 0.00 0.00 0.00 0.00 0.00 0.00 0.00 0.00 0.00 0.00 0.00 0.00 0.00 0.00 0.00 0.00 0.00 0.00 0.00 0.00
0.00 0.00 0.00 0.00 0.00 0.00 0.00 0.00 0.00 0.00 0.00 0.00 0.00 0.00 0.00 0.00 0.00 0.00 0.00 0.00 0.00 0.00 0.00 0.00 0.00 0.00 0.00 0.00 0.00 0.00 0.00 0.00 0.00 0.00 0.00 0.00 0.00 0.00 0.00 0.00 0.00 0.00 0.00 0.00 0.00 0.00 0.00
0.00 0.00 0.00 0.00 0.00 0.00 0.00 0.00 0.00 0.00 0.00 0.00 0.00 0.00 0.00 0.00 0.00 0.00 0.00 0.00 0.00 0.00 0.00 0.00 0.00 0.00 0.00 0.00 0.00 0.00 0.00 0.00 0.00 0.00 0.00 0.00 0.00 0.00 0.00 0.00 0.00 0.00 0.00 0.00 0.00 0.00 0.00
0.00 0.00 0.00 0.00 0.00 0.00 0.00 0.00 0.00 0.00 0.00 0.00 0.00 0.00 0.00 0.00 0.00 0.00 0.00 0.00 0.00 0.00 0.00 0.00 0.00 0.00 0.00 0.00 0.00 0.00 0.00 0.00 0.00 0.00 0.00 0.00 0.00 0.00 0.00 0.00 0.00 0.00 0.00 0.00 0.00 0.00 0.00
0.00 0.00 0.00 0.00 0.00 0.00 0.00 0.00 0.00 0.00 0.00 0.00 0.00 0.00 0.01 0.00 0.00 0.00 0.00 0.00 0.00 0.00 0.00 0.00 0.00 0.00 0.00 0.00 0.00 0.00 0.00 0.00 0.00 0.00 0.00 0.00 0.00 0.00 0.00 0.00 0.00 0.00 0.00 0.00 0.00 0.00 0.00
0.00 0.00 0.00 0.00 0.00 0.00 0.00 0.00 0.00 0.00 0.00 0.00 0.00 0.00 0.00 0.01 0.00 0.00 0.00 0.00 0.00 0.00 0.00 0.00 0.00 0.00 0.00 0.00 0.00 0.00 0.00 0.00 0.00 0.00 0.00 0.00 0.00 0.00 0.00 0.00 0.00 0.00 0.00 0.00 0.00 0.00 0.00
0.00 0.00 0.00 0.00 0.00 0.00 0.00 0.00 0.00 0.00 0.00 0.00 0.00 0.00 0.00 0.00 0.00 0.00 0.00 0.00 0.00 0.00 0.00 0.00 0.00 0.00 0.00 0.00 0.00 0.00 0.00 0.00 0.00 0.00 0.00 0.00 0.00 0.00 0.00 0.00 0.00 0.00 0.00 0.00 0.00 0.00 0.00
0.01 0.01 0.01 0.01 0.00 0.00 0.00 0.00 0.00 0.00 0.00 0.00 0.00 0.00 0.00 0.00 0.00 0.00 0.00 0.00 0.00 0.00 0.00 0.00 0.00 0.00 0.00 0.00 0.00 0.00 0.00 0.00 0.00 0.00 0.00 0.00 0.00 0.00 0.00 0.00 0.00 0.00 0.00 0.00 0.00 0.00 0.00
0.01 0.01 0.01 0.01 0.01 0.00 0.00 0.00 0.00 0.00 0.00 0.00 0.00 0.00 0.02 0.00 0.00 0.00 0.00 0.00 0.00 0.00 0.00 0.00 0.00 0.00 0.00 0.00 0.00 0.00 0.00 0.00 0.00 0.00 0.00 0.00 0.00 0.00 0.00 0.00 0.00 0.00 0.00 0.00 0.00 0.00 0.00
0.01 0.01 0.01 0.01 0.01 0.00 0.00 0.00 0.00 0.00 0.00 0.00 0.00 0.00 0.03 0.01 0.00 0.00 0.00 0.00 0.00 0.00 0.00 0.00 0.00 0.00 0.00 0.00 0.00 0.00 0.00 0.00 0.00 0.00 0.00 0.00 0.00 0.00 0.00 0.00 0.00 0.00 0.00 0.00 0.00 0.00 0.00
0.01 0.01 0.01 0.01 0.01 0.00 0.00 0.00 0.00 0.00 0.00 0.00 0.00 0.00 0.00 0.00 0.00 0.00 0.00 0.00 0.00 0.00 0.00 0.00 0.00 0.00 0.00 0.00 0.00 0.00 0.00 0.00 0.00 0.00 0.00 0.00 0.00 0.00 0.00 0.00 0.00 0.00 0.00 0.00 0.00 0.00 0.00
0.02 0.02 0.02 0.01 0.01 0.00 0.00 0.00 0.00 0.00 0.01 0.01 0.00 0.00 0.00 0.00 0.00 0.00 0.00 0.00 0.00 0.00 0.00 0.00 0.00 0.00 0.00 0.00 0.00 0.00 0.00 0.00 0.00 0.00 0.00 0.00 0.00 0.00 0.00 0.00 0.00 0.00 0.00 0.00 0.00 0.00 0.00
0.03 0.03 0.02 0.01 0.01 0.01 0.00 0.00 0.00 0.00 0.02 0.01 0.00 0.00 0.00 0.00 0.00 0.00 0.00 0.00 0.00 0.00 0.00 0.00 0.00 0.00 0.00 0.00 0.00 0.00 0.00 0.00 0.00 0.00 0.00 0.00 0.00 0.00 0.00 0.00 0.00 0.00 0.00 0.00 0.00 0.00 0.00
0.03 0.04 0.03 0.02 0.02 0.01 0.00 0.00 0.00 0.00 0.01 0.01 0.01 0.00 0.00 0.00 0.00 0.00 0.00 0.00 0.00 0.00 0.00 0.00 0.00 0.00 0.00 0.00 0.00 0.00 0.00 0.00 0.00 0.00 0.00 0.00 0.00 0.00 0.00 0.00 0.00 0.00 0.00 0.00 0.00 0.00 0.00
0.05 0.05 0.03 0.03 0.02 0.02 0.01 0.00 0.00 0.00 0.01 0.00 0.01 0.00 0.00 0.00 0.00 0.00 0.00 0.00 0.00 0.00 0.00 0.00 0.00 0.00 0.00 0.00 0.00 0.00 0.00 0.00 0.00 0.00 0.00 0.00 0.00 0.00 0.00 0.00 0.00 0.00 0.00 0.00 0.00 0.00 0.00
0.05 0.04 0.03 0.03 0.03 0.01 0.01 0.00 0.00 0.00 0.00 0.01 0.00 0.01 0.00 0.00 0.00 0.00 0.00 0.00 0.00 0.00 0.00 0.00 0.00 0.00 0.00 0.00 0.00 0.00 0.00 0.00 0.00 0.00 0.00 0.00 0.00 0.00 0.00 0.00 0.00 0.00 0.00 0.00 0.00 0.00 0.00
0.03 0.03 0.03 0.02 0.02 0.01 0.00 0.00 0.00 0.00 0.00 0.00 0.01 0.01 0.00 0.00 0.00 0.00 0.00 0.00 0.00 0.00 0.00 0.00 0.00 0.00 0.00 0.00 0.00 0.00 0.00 0.00 0.00 0.00 0.00 0.00 0.00 0.00 0.00 0.00 0.00 0.00 0.00 0.00 0.00 0.00 0.00
0.03 0.02 0.02 0.01 0.01 0.00 0.00 0.00 0.00 0.00 0.00 0.01 0.01 0.01 0.01 0.01 0.00 0.00 0.00 0.00 0.00 0.00 0.00 0.00 0.00 0.00 0.00 0.00 0.00 0.00 0.00 0.00 0.00 0.00 0.00 0.00 0.00 0.00 0.00 0.00 0.00 0.00 0.00 0.00 0.00 0.00 0.00
0.03 0.02 0.01 0.01 0.00 0.00 0.00 0.00 0.00 0.00 0.01 0.01 0.01 0.01 0.01 0.00 0.00 0.00 0.00 0.00 0.00 0.00 0.00 0.00 0.00 0.00 0.00 0.00 0.00 0.00 0.00 0.00 0.00 0.00 0.00 0.00 0.00 0.00 0.00 0.00 0.00 0.00 0.00 0.00 0.00 0.00 0.00
MSLP
1025.16 1024.98 1024.70 1024.47 1024.12 1023.67 1023.67 1023.94 1023.97 1023.90 1023.71 1023.51 1023.35 1022.96 1022.63 1022.11 1021.60 1021.47 1021.03 1020.28 1019.66 1018.92 1018.32 1017.86 1017.13 1016.59 1015.66 1015.51 1015.12 1013.76 1013.31 1012.31 1011.82 1011.88 1012.41 1012.75 1013.63 1015.14 1016.60 1018.16 1018.43 1020.09 1021.61 1022.28 1022.92 1023.84 1024.91
1025.35 1025.25 1025.00 1024.74 1024.37 1023.97 1023.58 1023.71 1023.54 1023.92 1023.77 1023.52 1023.36 1022.93 1022.60 1022.03 1021.59 1021.34 1020.82 1020.04 1019.51 1018.86 1018.09 1017.66 1017.17 1016.50 1016.04 1015.70 1014.59 1013.93 1013.32 1012.41 1012.02 1011.80 1012.59 1012.60 1014.78 1015.66 1017.19 1018.39 1018.96 1020.98 1022.03 1023.18 1023.76 1024.38 1025.30
1025.38 1025.14 1025.03 1024.83 1024.54 1024.26 1024.00 1023.77 1023.58 1023.78 1023.68 1023.32 1023.24 1022.97 1022.67 1021.99 1021.60 1021.12 1020.60 1019.85 1019.19 1018.60 1017.89 1017.42 1017.30 1017.01 1016.39 1015.59 1014.66 1014.07 1013.48 1013.08 1012.47 1012.32 1013.23 1013.87 1014.49 1015.44 1017.40 1019.07 1020.34 1021.28 1022.38 1023.87 1024.46 1024.75 1025.71
1025.32 1025.23 1025.20 1025.07 1024.72 1024.51 1024.26 1023.94 1023.67 1023.64 1023.28 1023.07 1023.16 1022.84 1022.75 1022.15 1021.63 1021.00 1020.43 1019.58 1018.83 1018.14 1017.55 1017.09 1017.06 1016.85 1016.27 1014.96 1014.55 1014.09 1013.80 1013.46 1013.00 1013.14 1013.59 1014.17 1014.54 1016.36 1018.02 1019.51 1021.04 1022.00 1022.83 1023.87 1024.27 1024.44 1024.92
1025.28 1025.17 1025.07 1024.98 1024.77 1024.51 1024.41 1024.06 1023.55 1023.40 1023.14 1023.14 1022.97 1022.87 1022.75 1022.31 1021.73 1021.05 1020.09 1019.07 1018.24 1017.75 1017.13 1016.99 1016.78 1016.50 1016.24 1014.96 1014.88 1014.86 1014.71 1014.59 1013.94 1013.98 1014.38 1014.63 1015.70 1017.67 1019.09 1020.08 1021.69 1022.49 1023.49 1023.78 1024.13 1023.82 1024.07
1025.26 1025.21 1025.14 1024.93 1024.75 1024.50 1024.39 1024.03 1023.87 1023.66 1023.13 1023.07 1022.91 1022.86 1022.95 1022.49 1021.67 1021.02 1019.78 1018.46 1017.48 1017.50 1016.62 1016.62 1016.77 1016.92 1016.28 1016.17 1015.68 1015.38 1014.76 1014.58 1014.67 1014.73 1015.24 1015.89 1017.42 1018.86 1020.37 1020.69 1021.53 1022.25 1023.05 1023.35 1023.34 1023.51 1023.90
1025.29 1025.18 1025.25 1025.07 1024.81 1024.65 1024.49 1024.31 1023.98 1023.80 1023.10 1023.03 1022.84 1022.97 1022.86 1022.49 1021.69 1021.13 1020.22 1018.47 1018.74 1018.31 1017.61 1017.66 1017.39 1016.84 1016.48 1015.99 1015.69 1015.69 1015.48 1015.30 1015.40 1015.76 1016.64 1017.21 1018.09 1019.27 1019.83 1020.05 1020.30 1020.86 1021.76 1022.38 1022.77 1022.66 1023.77
1025.14 1025.09 1025.13 1025.04 1024.91 1024.70 1024.71 1024.46 1024.26 1023.78 1023.38 1023.03 1022.94 1022.99 1022.83 1022.39 1021.81 1021.37 1021.04 1020.36 1020.24 1020.55 1019.16 1017.78 1017.08 1016.87 1016.54 1016.21 1016.15 1016.29 1015.68 1016.06 1016.51 1017.03 1017.52 1018.41 1018.92 1018.85 1019.31 1019.80 1020.12 1020.38 1021.24 1022.20 1022.30 1022.40 1023.34
1025.00 1024.91 1024.98 1024.95 1024.90 1024.79 1024.67 1024.43 1024.18 1023.90 1023.47 1023.06 1022.94 1023.04 1022.94 1022.35 1021.86 1021.52 1021.20 1020.55 1020.13 1020.08 1020.05 1018.17 1017.36 1016.92 1016.73 1016.56 1016.87 1017.00 1016.67 1016.84 1016.95 1017.58 1018.04 1018.72 1019.13 1018.79 1018.67 1019.67 1019.40 1020.20 1020.63 1021.39 1021.79 1022.40 1023.18
1024.75 1024.74 1024.75 1024.79 1024.72 1024.68 1024.52 1024.23 1024.11 1023.93 1023.61 1023.16 1022.93 1023.02 1022.86 1022.44 1022.60 1022.22 1020.97 1020.49 1020.23 1020.24 1020.55 1018.59 1017.71 1016.91 1016.69 1016.70 1017.11 1017.07 1016.92 1017.29 1017.40 1018.22 1018.81 1019.31 1019.28 1018.99 1018.75 1019.30 1019.50 1020.29 1020.57 1021.22 1021.87 1022.70 1023.51
1024.36 1024.48 1024.54 1024.59 1024.55 1024.45 1024.29 1024.09 1024.06 1023.94 1023.65 1023.23 1022.90 1022.83 1022.70 1022.97 1023.03 1022.06 1020.82 1020.66 1020.25 1020.65 1020.84 1018.89 1017.68 1017.01 1016.72 1017.09 1017.32 1017.31 1017.12 1017.25 1017.87 1018.69 1019.04 1020.02 1019.81 1019.57 1019.20 1019.39 1019.35 1019.92 1020.32 1021.04 1021.94 1022.84 1023.41
1024.16 1024.23 1024.33 1024.39 1024.36 1024.28 1024.20 1024.01 1023.89 1023.81 1023.53 1023.46 1022.84 1022.80 1022.78 1023.07 1023.36 1021.71 1020.83 1020.70 1020.81 1021.89 1020.56 1018.97 1017.83 1017.38 1017.35 1017.51 1017.52 1017.55 1017.72 1017.64 1018.25 1019.04 1019.68 1020.10 1019.99 1019.95 1019.78 1019.33 1019.47 1019.75 1020.60 1021.62 1022.76 1023.70 1023.94
1023.85 1023.93 1024.13 1024.16 1024.14 1024.06 1024.08 1023.93 1023.82 1023.76 1023.49 1023.34 1022.75 1022.61 1022.90 1022.66 1022.23 1021.41 1021.02 1021.51 1023.02 1022.86 1020.46 1019.49 1018.37 1017.99 1017.89 1018.38 1018.31 1018.01 1018.41 1018.67 1019.20 1020.04 1020.79 1020.63 1020.61 1020.39 1020.16 1019.94 1020.13 1020.60 1021.90 1023.87 1024.69 1025.15 1024.36
1023.55 1023.64 1023.88 1023.83 1023.92 1023.84 1023.93 1023.76 1023.67 1023.68 1023.41 1023.11 1022.80 1022.59 1022.40 1022.40 1021.72 1021.86 1021.84 1022.89 1023.13 1021.52 1020.33 1019.12 1018.43 1018.54 1018.72 1018.34 1018.77 1018.96 1019.16 1019.61 1019.62 1020.10 1020.89 1021.25 1021.49 1021.14 1020.95 1020.86 1021.09 1021.65 1022.63 1024.42 1025.43 1025.96 1024.75
1023.16 1023.23 1023.43 1023.49 1023.64 1023.60 1023.64 1023.63 1023.57 1023.44 1023.18 1022.84 1022.75 1022.43 1022.22 1021.45 1021.62 1022.23 1022.94 1023.61 1022.00 1021.04 1019.59 1019.12 1018.99 1019.12 1019.10 1018.58 1018.59 1019.32 1019.91 1020.02 1019.75 1020.07 1020.80 1021.44 1021.80 1021.79 1021.57 1021.43 1021.70 1022.19 1023.18 1024.09 1025.43 1026.36 1025.67
1022.72 1022.77 1022.93 1023.08 1023.20 1023.30 1023.33 1023.44 1023.36 1023.25 1023.08 1022.76 1022.63 1022.28 1021.94 1020.73 1021.32 1022.34 1023.36 1022.54 1020.94 1019.47 1018.79 1018.75 1019.00 1019.04 1019.22 1019.26 1019.01 1019.70 1019.94 1019.71 1019.66 1019.86 1020.17 1021.48 1022.31 1022.60 1022.24 1021.99 1022.42 1022.81 1023.58 1024.79 1026.16 1027.26 1026.24
1022.13 1022.26 1022.42 1022.66 1022.77 1022.93 1022.95 1023.06 1023.01 1023.00 1022.96 1022.68 1022.71 1022.28 1021.18 1021.05 1021.08 1022.83 1022.87 1021.72 1019.98 1018.32 1017.98 1018.30 1018.69 1018.90 1019.07 1018.99 1019.15 1019.78 1020.17 1019.94 1019.64 1020.23 1020.39 1021.41 1022.54 1023.68 1023.27 1022.96 1023.08 1023.60 1024.31 1025.45 1026.37 1027.23 1026.70
1021.60 1021.69 1021.96 1022.16 1022.33 1022.48 1022.55 1022.65 1022.66 1022.68 1022.79 1022.79 1022.48 1022.12 1021.04 1021.12 1021.82 1022.36 1022.12 1020.41 1018.86 1018.09 1017.81 1017.91 1018.19 1018.48 1018.93 1019.19 1019.30 1019.85 1020.22 1019.99 1020.09 1020.27 1021.09 1021.98 1023.31 1024.23 1023.94 1023.59 1023.75 1024.15 1024.70 1025.63 1027.11 1027.80 1027.29
1021.05 1021.13 1021.38 1021.67 1021.88 1021.99 1022.11 1022.21 1022.30 1022.30 1022.55 1022.21 1022.03 1021.34 1021.82 1021.42 1021.68 1022.15 1021.13 1019.79 1018.74 1018.09 1017.87 1018.14 1018.29 1018.47 1018.75 1019.36 1019.97 1020.12 1020.28 1020.36 1020.36 1020.44 1021.25 1022.14 1023.88 1024.74 1024.57 1024.71 1024.73 1024.97 1025.50 1026.45 1027.01 1027.43 1027.00
1020.30 1020.50 1020.72 1021.05 1021.32 1021.44 1021.56 1021.76 1021.85 1021.86 1022.05 1022.26 1021.60 1021.20 1022.02 1022.37 1021.52 1021.48 1020.49 1019.52 1018.82 1017.73 1017.73 1017.89 1018.35 1018.66 1019.08 1019.60 1019.83 1020.44 1021.06 1021.13 1021.14 1021.24 1021.60 1022.15 1023.82 1024.58 1024.81 1024.72 1025.17 1025.70 1026.07 1026.75 1027.05 1027.74 1026.34
1019.68 1019.83 1020.12 1020.45 1020.83 1021.06 1021.13 1021.30 1021.36 1021.44 1021.71 1022.43 1021.43 1020.71 1020.05 1021.03 1021.42 1020.78 1020.11 1018.89 1018.64 1017.95 1017.60 1017.84 1018.62 1018.82 1019.26 1020.01 1020.36 1020.79 1021.38 1021.76 1022.03 1022.01 1022.21 1022.85 1024.21 1024.79 1024.81 1024.93 1025.05 1025.12 1025.55 1026.31 1026.45 1025.60 1025.46
1018.95 1019.15 1019.40 1019.84 1020.18 1020.47 1020.61 1020.82 1020.81 1021.00 1021.45 1021.88 1020.53 1020.26 1019.92 1019.76 1020.42 1020.02 1019.50 1018.49 1017.83 1017.79 1017.76 1018.08 1018.56 1018.98 1019.44 1020.07 1020.35 1021.10 1021.31 1021.81 1021.95 1022.63 1022.76 1023.47 1024.46 1025.06 1025.31 1024.99 1025.02 1024.95 1024.92 1024.77 1024.82 1024.39 1023.99
1018.14 1018.40 1018.72 1019.16 1019.56 1019.92 1020.15 1020.35 1020.47 1020.59 1021.13 1020.88 1020.25 1019.82 1019.02 1019.35 1019.37 1019.76 1018.44 1017.61 1016.94 1017.32 1017.47 1017.47 1018.27 1019.05 1019.73 1020.02 1020.36 1020.65 1020.98 1021.33 1021.64 1022.47 1023.42 1024.34 1025.43 1026.41 1026.46 1025.81 1025.20 1024.70 1023.18 1023.03 1023.00 1022.87 1022.76
1017.39 1017.70 1018.07 1018.53 1018.98 1019.37 1019.66 1019.94 1020.12 1020.21 1020.58 1020.69 1019.86 1019.29 1019.56 1019.49 1018.65 1017.61 1017.25 1017.55 1017.06 1017.21 1017.49 1017.70 1018.12 1018.75 1019.51 1019.81 1020.43 1021.04 1021.84 1022.31 1022.53 1022.78 1023.18 1024.75 1025.95 1027.05 1027.47 1026.92 1025.73 1023.20 1021.95 1021.50 1021.73 1021.74 1022.01
1016.65 1017.03 1017.45 1018.01 1018.44 1018.84 1019.23 1019.65 1019.89 1020.14 1020.41 1020.69 1020.41 1019.70 1019.03 1018.81 1018.24 1018.12 1017.65 1017.22 1017.17 1017.46 1017.71 1017.83 1018.01 1017.88 1019.21 1020.78 1023.06 1024.15 1024.73 1024.04 1023.67 1023.40 1023.85 1024.38 1025.98 1027.72 1028.33 1027.80 1025.59 1022.94 1021.61 1021.30 1021.39 1021.83 1022.01
1016.00 1016.45 1016.96 1017.48 1017.95 1018.36 1018.77 1019.28 1019.60 1019.80 1020.19 1020.52 1020.41 1020.70 1019.94 1018.80 1017.14 1017.10 1017.23 1016.46 1016.61 1017.30 1018.32 1018.46 1018.59 1018.79 1019.69 1022.72 1024.55 1025.77 1025.82 1025.27 1024.89 1024.44 1024.46 1025.24 1026.14 1027.58 1028.90 1028.28 1026.30 1023.03 1021.60 1021.15 1021.41 1022.14 1022.11
1015.31 1016.05 1016.53 1016.92 1017.42 1017.89 1018.33 1018.78 1019.21 1019.52 1019.74 1020.21 1020.05 1020.18 1020.51 1018.42 1016.55 1016.06 1016.00 1015.90 1016.28 1017.06 1018.39 1019.25 1019.32 1020.00 1021.04 1023.67 1025.97 1026.65 1026.28 1025.21 1025.23 1025.12 1025.38 1026.13 1027.20 1028.17 1028.49 1027.79 1025.44 1022.56 1021.75 1021.53 1022.42 1022.96 1022.61
1014.82 1015.62 1016.12 1016.49 1016.95 1017.48 1017.95 1018.35 1018.86 1019.20 1019.23 1019.64 1019.63 1019.96 1019.83 1018.62 1016.75 1016.23 1015.64 1015.18 1015.52 1016.53 1018.33 1019.43 1020.38 1021.12 1022.79 1024.18 1025.40 1026.26 1025.88 1025.28 1024.95 1024.65 1024.99 1025.69 1026.83 1027.73 1028.17 1027.54 1025.29 1022.32 1022.02 1022.33 1022.82 1022.81 1023.27
1014.32 1014.98 1015.49 1015.97 1016.54 1017.12 1017.56 1017.92 1018.42 1018.76 1018.76 1019.17 1019.27 1019.30 1019.26 1018.95 1017.92 1016.72 1016.01 1015.06 1014.69 1015.65 1017.06 1018.97 1019.34 1020.09 1021.08 1023.01 1024.56 1025.12 1025.48 1025.03 1024.61 1024.77 1024.40 1024.92 1024.45 1025.19 1026.07 1024.75 1023.20 1022.44 1022.29 1022.41 1022.79 1023.31 1024.01
Thickness
5609 5615 5621 5626 5631 5637 5639 5638 5640 5643 5646 5650 5653 5658 5665 5674 5683 5687 5692 5703 5710 5718 5724 5729 5732 5735 5742 5728 5728 5756 5760 5771 5779 5774 5767 5762 5748 5733 5714 5710 5717 5699 5690 5690 5686 5679 5668
5598 5604 5610 5617 5624 5630 5636 5635 5640 5639 5642 5647 5650 5655 5659 5669 5677 5682 5690 5701 5708 5715 5722 5727 5730 5733 5732 5711 5747 5755 5760 5771 5777 5774 5765 5768 5743 5738 5721 5712 5707 5699 5690 5679 5676 5671 5666
5592 5597 5602 5608 5615 5621 5626 5630 5634 5634 5637 5644 5647 5651 5655 5663 5671 5679 5687 5697 5706 5713 5721 5725 5726 5726 5721 5720 5747 5753 5760 5764 5772 5771 5755 5758 5755 5740 5726 5707 5707 5697 5678 5670 5668 5669 5658
5582 5588 5592 5596 5604 5611 5617 5623 5627 5630 5636 5641 5643 5648 5650 5659 5665 5675 5683 5694 5704 5713 5719 5724 5725 5726 5709 5738 5745 5750 5756 5759 5766 5763 5757 5757 5755 5733 5717 5710 5696 5682 5677 5657 5670 5670 5670
5571 5578 5584 5589 5595 5602 5607 5615 5624 5627 5632 5635 5640 5644 5646 5652 5660 5669 5681 5692 5703 5710 5718 5721 5724 5720 5703 5736 5729 5739 5742 5739 5750 5752 5749 5751 5740 5715 5707 5693 5670 5674 5655 5660 5666 5679 5679
5558 5565 5572 5579 5585 5594 5598 5606 5613 5618 5626 5631 5636 5638 5640 5645 5655 5664 5678 5693 5703 5706 5715 5718 5719 5703 5711 5706 5721 5729 5739 5740 5736 5738 5731 5727 5707 5688 5683 5673 5656 5663 5659 5668 5663 5678 5681
5545 5552 5558 5567 5574 5581 5588 5595 5603 5610 5620 5623 5630 5632 5635 5641 5651 5658 5670 5683 5677 5681 5696 5690 5694 5699 5706 5717 5724 5721 5729 5729 5729 5723 5699 5707 5691 5674 5682 5683 5693 5687 5674 5669 5674 5687 5678
5531 5538 5545 5554 5562 5570 5576 5584 5593 5602 5610 5616 5622 5625 5631 5637 5645 5651 5657 5662 5661 5663 5664 5691 5699 5700 5708 5713 5701 5708 5727 5709 5705 5690 5702 5687 5677 5696 5697 5690 5688 5687 5674 5668 5681 5688 5681
5515 5524 5531 5540 5548 5558 5565 5573 5583 5592 5601 5609 5615 5617 5623 5633 5640 5645 5649 5655 5662 5665 5651 5677 5689 5692 5697 5705 5690 5693 5708 5702 5697 5691 5691 5678 5686 5700 5701 5684 5688 5684 5676 5669 5674 5681 5682
5497 5506 5515 5525 5535 5545 5555 5565 5573 5582 5591 5601 5608 5611 5618 5626 5628 5632 5642 5651 5656 5659 5626 5659 5671 5684 5694 5697 5684 5701 5704 5697 5694 5680 5682 5679 5690 5693 5695 5685 5688 5672 5688 5686 5673 5664 5650
5478 5488 5498 5508 5520 5531 5543 5554 5562 5571 5582 5592 5599 5605 5612 5615 5617 5628 5640 5644 5650 5645 5581 5653 5666 5690 5690 5684 5685 5687 5702 5695 5684 5678 5683 5671 5675 5677 5679 5685 5692 5684 5692 5686 5677 5664 5666
5458 5469 5479 5489 5503 5516 5529 5541 5551 5560 5572 5581 5591 5598 5604 5607 5610 5625 5636 5638 5638 5587 5582 5643 5661 5665 5669 5677 5679 5685 5683 5694 5691 5675 5673 5671 5682 5678 5681 5693 5692 5695 5686 5671 5663 5653 5635
5442 5452 5461 5472 5486 5500 5514 5527 5538 5548 5560 5572 5585 5592 5595 5602 5610 5621 5628 5622 5580 5560 5634 5633 5646 5657 5659 5658 5663 5671 5667 5666 5654 5646 5649 5663 5665 5676 5682 5678 5682 5675 5654 5610 5620 5606 5620
5427 5437 5446 5458 5470 5485 5497 5513 5525 5536 5549 5562 5573 5583 5591 5597 5607 5611 5614 5598 5559 5604 5622 5645 5648 5647 5643 5656 5656 5656 5655 5647 5662 5658 5640 5640 5640 5661 5670 5670 5665 5666 5654 5611 5621 5607 5633
5415 5425 5433 5445 5456 5469 5483 5498 5511 5525 5538 5552 5563 5577 5586 5596 5599 5599 5593 5549 5584 5608 5632 5633 5638 5631 5637 5649 5653 5651 5641 5643 5653 5658 5638 5634 5639 5658 5661 5665 5665 5658 5645 5653 5630 5621 5621
5403 5413 5422 5433 5444 5456 5469 5483 5498 5513 5525 5539 5553 5568 5579 5591 5592 5588 5575 5584 5609 5630 5635 5633 5618 5628 5622 5631 5638 5639 5640 5652 5654 5661 5660 5648 5627 5646 5653 5661 5658 5654 5653 5626 5598 5602 5611
5394 5402 5412 5422 5433 5444 5457 5471 5486 5501 5513 5526 5540 5559 5577 5581 5585 5566 5556 5581 5614 5639 5638 5630 5621 5621 5628 5629 5631 5631 5636 5648 5656 5652 5657 5645 5623 5625 5639 5639 5635 5637 5634 5628 5620 5603 5599
5384 5393 5402 5411 5423 5434 5447 5460 5474 5489 5501 5513 5529 5551 5566 5570 5569 5554 5558 5596 5623 5630 5635 5633 5631 5630 5624 5627 5626 5625 5628 5639 5644 5650 5640 5641 5611 5604 5627 5638 5642 5640 5637 5631 5594 5603 5592
5373 5383 5392 5401 5412 5425 5437 5450 5463 5478 5490 5506 5521 5545 5542 5553 5554 5561 5581 5602 5613 5620 5625 5623 5625 5630 5632 5621 5616 5623 5624 5634 5641 5643 5635 5633 5604 5587 5611 5617 5622 5626 5622 5598 5594 5595 5603
5364 5373 5382 5392 5404 5417 5429 5441 5454 5468 5480 5491 5511 5519 5527 5536 5552 5565 5581 5589 5597 5622 5621 5624 5623 5626 5624 5618 5625 5614 5613 5620 5628 5629 5626 5627 5608 5603 5594 5614 5601 5598 5608 5575 5592 5578 5597
5353 5363 5373 5383 5393 5406 5419 5431 5445 5458 5467 5474 5494 5508 5538 5532 5541 5563 5577 5588 5590 5606 5621 5621 5617 5617 5615 5609 5613 5613 5609 5610 5615 5616 5621 5615 5599 5598 5604 5612 5609 5610 5608 5594 5591 5607 5593
5341 5351 5363 5374 5384 5397 5411 5421 5436 5449 5454 5465 5490 5512 5530 5541 5548 5557 5570 5578 5596 5606 5608 5610 5610 5610 5611 5602 5607 5599 5607 5606 5608 5608 5612 5606 5593 5602 5603 5606 5604 5602 5606 5604 5600 5606 5601
5330 5341 5352 5364 5374 5387 5400 5413 5427 5439 5446 5463 5485 5505 5528 5536 5546 5547 5570 5593 5601 5605 5614 5616 5611 5606 5604 5607 5615 5618 5616 5614 5613 5604 5598 5594 5576 5572 5578 5593 5589 5573 5602 5610 5606 5606 5604
5323 5330 5341 5352 5365 5377 5390 5404 5418 5431 5441 5457 5479 5501 5508 5510 5543 5566 5582 5584 5591 5597 5601 5610 5608 5605 5612 5614 5614 5610 5603 5603 5606 5605 5600 5582 5575 5550 5545 5567 5534 5594 5612 5614 5606 5607 5599
5313 5319 5327 5340 5354 5367 5381 5394 5408 5420 5432 5447 5463 5484 5504 5508 5542 5553 5564 5578 5588 5591 5594 5598 5608 5617 5609 5599 5572 5572 5557 5579 5588 5600 5596 5589 5563 5537 5528 5536 5567 5597 5605 5604 5598 5597 5595
5298 5305 5314 5328 5342 5357 5371 5384 5398 5412 5425 5437 5453 5465 5486 5512 5537 5557 5560 5577 5579 5575 5579 5589 5599 5603 5598 5565 5547 5538 5552 5569 5569 5586 5584 5576 5568 5552 5525 5525 5533 5580 5598 5600 5594 5570 5586
5289 5295 5304 5319 5333 5347 5362 5376 5390 5406 5420 5431 5447 5462 5472 5509 5541 5553 5558 5569 5578 5575 5568 5577 5590 5592 5588 5536 5528 5544 5556 5573 5560 5565 5552 5548 5537 5525 5505 5524 5553 5582 5589 5589 5565 5559 5576
5288 5293 5300 5312 5326 5340 5354 5370 5385 5399 5414 5426 5445 5455 5471 5497 5528 5546 5563 5572 5576 5573 5558 5570 5568 5566 5551 5544 5544 5537 5542 5560 5567 5571 5561 5554 5531 5508 5504 5494 5535 5580 5580 5568 5561 5565 5559
5287 5292 5299 5308 5320 5334 5349 5366 5381 5394 5409 5421 5437 5455 5470 5486 5505 5530 5547 5567 5582 5582 5570 5563 5577 5574 5570 5550 5538 5540 5551 5533 5561 5553 5568 5560 5557 5540 5541 5544 5565 5571 5569 5565 5558 5552 5546